THORAD AGENA D DEB, 4932

Orbit data source: Space-Track

THORAD AGENA D DEB, 4932 is space debris in SSO originally from a launch on Wed, 08 Apr 1970 UTC launched from the Air Force Western Test Range (AFWTR). Debris objects in space refer to the collection of defunct objects orbiting the Earth. Examples of debris include non-operational satellites, rocket bodies, and fragments generated from explosions, collisions, or faulty payload assembly.

Loading next visibility...
Identifier
4932, 1970-025FY
Orbit
SSO
Country
Flag of USUS
Related business
Manufacturer
Unknown
Mission
Spacecraft
Bus & Motor
Unknown
Mass
Unknown
Launch date (UTC)
1970-04-08 (56 years ago)
Launch vehicle
Unknown
Launch site
Air Force Western Test Range (AFWTR)
Object type
Payload
Rocket body
Debris
Shape & HBR
Unknown shape, 0.1 m
Radar Cross Section
Small (<0.1 m²)

Expand to show TLE details & history
Last TLE update: 18 hours ago

TLE from 18 hours ago
0 THORAD AGENA D DEB
1 04932U 70025FY  25292.24509243  .00004540  00000-0  32466-2 0  9997
2 04932  99.8096 292.5849 0028114 257.4480 118.7601 13.97553959769503
Epoch: 2025-10-19T05:52Z
TLE epoch observation values (Epoch: 2025-10-19T05:52:55.985Z)
Latitude
16.22554°
Longitude
173.51808°
Altitude
914.364 km
Speed
7.391 km/s
True Right ascension
19h 18m 51s
True Declination
16° 08' 08"
Sunlit
Object was in daylight at epoch
Visualization orbit readout
Latitude
Unknown
Longitude
Unknown
Altitude
Unknown
Speed
Unknown
Apparent Right ascension
Unknown
Apparent Declination
Unknown
Sunlit
N/A
Visualization observer readout
Local Sidereal Time
18:28:14
Azimuth
Unknown
Elevation
Unknown
Doppler factor
Unknown
Orbital elements
Apogee altitude
919.982 km
Perigee altitude
879.061 km
Semi-major axis
7,277.659 km
Eccentricity
0.00281
Inclination
99.8096°
RAAN
292.5849°
Arg. of periapsis
257.448°
True anomaly
119.04204°
Mean anomaly
118.7601°
Eccentric anomaly
118.90112°
Mean motion
3.49587 °/min
Orbital period
102.98 mins
BSTAR
0.0032466
Loading maneuver chart data...
Computing Atmospheric mass density...

Documentation

Showing up to 5 results
|